Juan de Fuca Strait - east entrance: Past 24 Hour Conditions

 

Comox Airport

12:00 AM PDT 21 April 2014
This table is a summary of hourly weather conditions for the past 24 hours.
Date / Time
(PDT)
Wind(knots) Conditions Visibility(km) Pressure(kPa) Air tempC) Relative humidity(%) Dew pointC)
21 April 2014
0:00 SSE 13 Cloudy 32 101.9 9 77 6
20 April 2014
23:00 SE 11 gust 16 Light Rainshower 32 102.0 9 84 6
22:00 SE 15 Light Rainshower 32 102.0 9 79 6
21:00 SE 18 Cloudy 32 102.0 9 84 7
20:00 SSE 10 Light Rainshower 24 102.0 9 84 7
19:00 SSE 16 Light Rainshower 19 102.1 9 87 7
18:00 SSE 16 Light Rainshower 16 102.1 10 83 7
17:00 SSE 14 gust 20 Light Rainshower 16 102.2 10 77 6
16:00 SE 14 Light Rainshower 24 102.2 10 82 7
15:00 SE 13 gust 19 Light Rainshower 24 102.3 9 86 7
14:00 SE 20 Cloudy 24 102.3 10 77 7
13:00 SE 20 gust 28 Cloudy 24 102.3 10 78 7
12:00 SE 19 gust 26 Cloudy 32 102.3 11 80 8
11:00 SE 17 Cloudy 32 102.3 10 82 7
10:00 SE 15 Cloudy 32 102.3 10 79 6
9:00 SE 15 Cloudy 32 102.3 9 80 6
8:00 S 8 Cloudy 32 102.3 8 79 5
7:00 SE 3 Mostly Cloudy 24 102.3 6 79 3
6:00 ENE 3 Partly Cloudy 32 102.2 6 77 2
5:00 SE 6 Mainly Clear 32 102.2 6 73 2
4:00 SE 2 Clear 32 102.1 6 73 1
3:00 S 3 Mainly Clear 32 102.1 6 71 1
2:00 SW 3 Mainly Clear 32 102.0 8 61 1
1:00 SW 6 Clear 32 101.9 8 61 1
0:00 SW 10 gust 18 Clear 32 101.7 9 59 2
 
Map of Pacific - South Coast marine weather areas Tsawwassen Ferry Terminal South Nomad - 46036 Sentry Shoal - 46131 South Brooks - 46132 Halibut Bank - 46146 South Moresby - 46147 South Hecate Strait - 46185 West Sea Otter - 46204 La Perouse Bank - 46206 East Dellwood - 46207 Discovery Island Esquimalt Harbour Kelp Reefs Malahat Race Rocks Lightstation Saturna Island Sheringham Point University of Victoria Victoria Gonzales Victoria Int'l Airport Ballenas Islands Campbell River Airport Comox Airport Entrance Island Fanny Island Nanaimo Airport Port Hardy Airport Sisters Islets Estevan Point Sartine Island Solander Island Tofino Airport Grief Point Powell River Airport Sechelt Cape St.James Bella Bella Airport Bella Coola Airport Cathedral Point Herbert Island Point Atkinson Sand Heads Lightstation Vancouver Harbour Vancouver Int'l Airport West Vancouver Port Alberni Howe Sound - Pam Rocks Squamish Airport